DateTimeUTC,F1_A11,F1_S11,BsB_S11,BsG_S11,BsR_S11,BbsB_S11,BbsG_S11,BbsR_S11,BaB_A11,BaG_A11,BaR_A11,Tu_S11,T_S11,Uu_S11,U_S11,P_S11,T1_A11
2021-09-08T09:00:00Z,00000200,21000000,,,,,,,0000.24,0000.10,0000.30,17.8,24.8,,00.0,0660.7,30.9
2021-09-08T09:01:00Z,00000200,21000000,,,,,,,0000.05,0000.11,0000.45,17.8,24.8,,00.0,0660.7,30.9
2021-09-08T09:02:00Z,00000200,21000000,,,,,,,0000.08,-000.14,-000.23,17.8,24.8,,00.0,0660.7,31.0
2021-09-08T09:03:00Z,00000200,61000000,,,,,,,0000.48,0000.36,0000.19,17.9,24.9,,00.0,0660.7,31.0
2021-09-08T09:04:00Z,00000200,41000000,0000.70,0000.09,-000.06,0000.20,-000.07,-000.12,-000.22,-000.06,-000.39,18.2,24.8,,00.0,0661.6,31.0
2021-09-08T09:05:00Z,00000200,01000000,0000.89,0000.40,0000.15,-000.07,-000.19,-000.17,-000.06,0000.02,-000.00,18.3,24.7,,00.0,0661.7,31.0
2021-09-08T09:06:00Z,00000200,01000000,0000.46,0000.25,0000.24,0000.03,0000.01,0000.26,0000.03,-000.42,-000.04,18.2,24.7,,00.0,0661.7,31.0
2021-09-08T09:07:00Z,00000200,01000000,0000.29,-000.12,0000.34,0000.10,0000.04,-000.07,-000.01,0000.52,0000.12,18.1,24.7,,00.0,0661.7,30.9
2021-09-08T09:08:00Z,00000200,01000000,0000.16,0000.04,0000.13,-000.04,0000.48,0000.14,0000.36,-000.35,-000.10,18.1,24.6,,00.0,0661.7,30.9
2021-09-08T09:09:00Z,00000200,01000000,0001.04,0000.46,0000.02,-000.13,0000.16,-000.13,-000.27,0000.03,0000.04,18.0,24.6,,00.0,0661.7,30.9
2021-09-08T09:10:00Z,00000200,01000000,0000.38,0000.16,0000.19,0000.26,-000.09,-000.02,0000.40,0000.59,0000.25,18.0,24.5,,00.0,0661.7,30.9
2021-09-08T09:11:00Z,00000200,01000000,0000.61,0000.16,0000.05,-000.65,0000.12,0000.08,0000.26,-000.14,0000.00,18.0,24.5,,00.0,0661.7,30.9
2021-09-08T09:12:00Z,00000200,01000000,0000.07,-000.14,0000.42,0000.13,0000.11,0000.33,-000.08,0000.01,0000.46,18.0,24.5,,00.0,0661.7,30.9
2021-09-08T09:13:00Z,00000200,01000000,0000.50,-000.03,-000.03,0000.38,-000.10,0000.01,0000.12,0000.70,-000.06,18.1,24.5,,00.0,0661.8,30.9
2021-09-08T09:14:00Z,00000200,01000000,0000.45,-000.03,-000.07,-000.22,-000.03,-000.18,0000.33,-000.13,-000.22,18.1,24.5,,00.0,0661.8,30.9
2021-09-08T09:15:00Z,00000200,01000000,0000.60,0000.15,0000.00,-000.29,0000.16,0000.43,-000.12,0000.06,0000.41,18.2,24.6,,00.0,0661.8,31.0
2021-09-08T09:16:00Z,00000200,01000000,0000.68,0000.20,-000.23,-000.47,-000.10,-000.01,0000.00,0000.25,0000.00,18.3,24.6,,00.0,0661.8,31.0
2021-09-08T09:17:00Z,00000200,01000000,0000.82,0000.03,0000.02,0000.16,-000.00,0000.24,0000.40,-000.15,0000.32,18.4,24.6,,00.0,0661.8,31.0
2021-09-08T09:18:00Z,00000200,01000000,0000.86,0000.60,0000.14,-000.16,-000.06,0000.12,-000.19,0000.06,-000.25,18.4,24.7,,00.0,0661.8,31.0
2021-09-08T09:19:00Z,00000200,01000000,0000.54,0000.65,0000.06,-000.09,0000.09,0000.17,0000.14,0000.29,-000.05,18.3,24.7,,00.0,0661.8,31.0
2021-09-08T09:20:00Z,00000200,01000000,0000.88,0000.52,0000.06,-000.44,-000.19,0000.24,0000.19,-000.30,0000.23,18.3,24.6,,00.0,0661.9,31.0
2021-09-08T09:21:00Z,00000200,01000000,0001.04,0000.25,-000.08,0001.07,-000.09,0000.00,-000.24,0000.18,-000.11,18.2,24.6,,00.0,0661.9,31.0
2021-09-08T09:22:00Z,00000200,01000000,0000.66,0000.21,0000.13,0000.13,0000.07,0000.22,0000.23,-000.00,-000.24,18.2,24.6,,00.0,0661.9,30.9
2021-09-08T09:23:00Z,00000200,01000000,0000.81,0000.04,0000.18,-000.41,-000.25,0000.11,0000.10,-000.26,0000.13,18.1,24.5,00.0,00.0,0661.8,30.9
2021-09-08T09:24:00Z,00000200,01000000,0000.61,0000.19,0000.14,-000.03,0000.13,-000.20,-000.07,0000.30,0000.13,18.0,24.5,00.0,00.0,0661.8,30.9
2021-09-08T09:25:00Z,00000200,01000000,0000.50,0000.39,0000.10,0000.81,0000.14,0000.17,0000.37,0000.36,0000.19,18.0,24.5,,00.0,0661.8,30.9
2021-09-08T09:26:00Z,00000200,01000000,0000.82,0000.24,0000.27,0000.32,-000.05,0000.02,-000.01,-000.24,-000.09,18.0,24.4,,00.0,0661.8,30.9
2021-09-08T09:27:00Z,00000200,01000000,0000.43,0000.24,0000.26,-000.40,0000.07,0000.08,-000.45,-000.01,-000.11,18.0,24.4,,00.0,0661.9,30.9
2021-09-08T09:28:00Z,00000200,01000000,0001.70,0000.28,-000.15,0000.06,-000.07,-000.13,0000.04,-000.33,-000.01,18.1,24.5,,00.0,0661.9,31.0
2021-09-08T09:29:00Z,00000200,01000000,0000.96,0000.28,0000.05,-000.33,0000.07,0000.12,0000.32,0000.41,0000.22,18.2,24.5,00.0,00.0,0661.9,30.9
2021-09-08T09:30:00Z,00000200,01000000,0001.16,0000.30,0000.22,0000.38,0000.15,0000.12,0000.12,0000.21,0000.20,18.3,24.6,,00.0,0661.9,31.0
2021-09-08T09:31:00Z,00000200,01000000,0000.59,0000.43,0000.37,-000.27,-000.02,0000.56,-000.03,-000.11,0000.09,18.4,24.6,,00.0,0661.9,31.0
2021-09-08T09:32:00Z,00000200,01000000,0000.70,0000.31,-000.02,-000.01,-000.10,0000.25,0000.39,0000.24,0000.19,18.4,24.6,,00.0,0661.9,31.0
2021-09-08T09:33:00Z,00000200,01000000,0000.34,-000.01,0000.17,0000.51,0000.21,0000.15,0000.12,0000.27,-000.03,18.4,24.6,,00.0,0661.9,31.0
2021-09-08T09:34:00Z,00000200,01000000,0000.37,-000.02,0000.23,0000.07,-000.27,0000.12,0000.16,0000.03,0000.26,18.3,24.6,00.0,00.0,0661.9,30.9
2021-09-08T09:35:00Z,00000200,01000000,0000.06,0000.08,0000.19,0000.02,0000.24,0000.10,-000.19,-000.06,-000.22,18.3,24.6,,00.0,0662.0,30.9
2021-09-08T09:36:00Z,00000200,01000000,0000.34,-000.05,0000.25,0000.22,-000.03,0000.02,-000.00,0000.07,0000.23,18.2,24.6,00.0,00.0,0661.9,30.9
2021-09-08T09:37:00Z,00000200,01000000,0000.46,0000.18,-000.01,0000.11,0000.18,-000.27,-000.05,-000.13,-000.13,18.1,24.5,00.0,00.0,0661.9,30.9
2021-09-08T09:38:00Z,00000200,01000000,0000.36,0000.28,0000.00,0000.20,0000.09,0000.09,0000.30,0000.16,-000.22,18.1,24.5,00.0,00.0,0662.0,30.9
2021-09-08T09:39:00Z,00000200,01000000,0000.75,-000.01,-000.08,-000.53,-000.33,-000.12,-000.21,0000.26,0000.23,18.0,24.5,00.0,00.0,0661.9,30.9
2021-09-08T09:40:00Z,00000200,01000000,0000.46,0000.23,0000.27,-000.49,-000.04,-000.12,0000.48,0000.24,-000.22,18.0,24.4,00.0,00.0,0662.0,30.9
2021-09-08T09:41:00Z,00000200,01000000,0000.81,0000.43,0000.35,-000.03,-000.11,0000.12,-000.21,-000.31,0000.37,18.0,24.4,00.0,00.0,0662.0,30.9
2021-09-08T09:42:00Z,00000200,01000000,0000.45,-000.05,-000.01,-000.15,0000.01,0000.16,-000.08,-000.18,-000.04,18.0,24.4,00.0,00.0,0662.0,30.9
2021-09-08T09:43:00Z,00000200,01000000,-000.48,-000.02,0000.25,-000.24,0000.12,0000.01,-000.23,-000.24,-000.13,18.1,24.4,00.0,00.0,0662.0,30.9
2021-09-08T09:44:00Z,00000200,01000000,0000.84,0000.12,0000.31,0000.42,0000.20,0000.08,-000.13,0000.03,-000.10,18.2,24.5,00.0,00.0,0662.1,30.9
2021-09-08T09:45:00Z,00000200,01000000,0000.33,-000.16,0000.13,0000.08,-000.25,0000.17,-000.84,-000.61,-000.74,18.2,24.5,,00.0,0662.1,31.0
2021-09-08T09:46:00Z,00000200,01000000,0000.71,0000.29,0000.10,-000.45,0000.02,-000.10,-000.32,-000.44,-000.06,18.3,24.6,,00.0,0662.1,31.0
2021-09-08T09:47:00Z,00000200,01000000,0000.65,0000.42,0000.23,0000.15,0000.07,0000.21,-000.21,-000.49,-000.12,18.2,24.6,,00.0,0662.1,30.9
2021-09-08T09:48:00Z,00000200,01000000,0000.04,0000.47,0000.08,-000.39,-000.01,0000.17,-000.14,0000.22,-000.47,18.2,24.5,,00.0,0662.1,30.9
2021-09-08T09:49:00Z,00000200,01000000,0000.58,0000.74,0000.61,-000.10,0000.34,0000.50,-000.37,-000.08,0000.05,18.1,24.5,,00.0,0662.2,30.9
2021-09-08T09:50:00Z,00000200,01000000,0000.79,0000.39,0000.12,0000.18,0000.16,-000.05,0000.04,-000.41,-000.18,18.1,24.5,,00.0,0662.1,30.9
2021-09-08T09:51:00Z,00000200,01000000,0000.96,-000.07,0000.36,-000.51,-000.18,0000.00,-000.68,-000.62,-000.14,18.0,24.5,,00.0,0662.2,30.9
2021-09-08T09:52:00Z,00000200,01000000,0001.21,0000.45,0000.25,-000.13,0000.55,0000.23,-000.41,-000.49,-000.73,18.0,24.4,,00.0,0662.2,30.9
2021-09-08T09:53:00Z,00000200,01000000,0000.57,0000.54,0000.56,-000.00,0000.12,0000.15,-000.27,-000.04,0000.31,17.9,24.4,,00.0,0662.3,30.9
2021-09-08T09:54:00Z,00000200,01000000,0001.16,0000.62,0000.71,0000.79,0000.13,0000.21,-000.52,-000.14,-000.60,17.9,24.4,,00.0,0662.5,30.9
2021-09-08T09:55:00Z,00000200,01000000,0000.59,0000.75,0000.79,0000.23,0000.25,0000.06,-000.26,-000.73,-000.05,17.8,24.3,,00.0,0662.5,30.9
2021-09-08T09:56:00Z,00000200,01000000,0000.87,0000.45,0000.69,-000.09,0000.29,0000.40,0000.01,0000.56,0000.22,17.8,24.3,,00.0,0662.5,30.9
2021-09-08T09:57:00Z,00000200,41000000,,,,,,,0001.43,0001.26,0000.79,17.9,24.3,,00.0,0662.4,30.9
2021-09-08T09:58:00Z,00000200,61000000,,,,,,,-000.87,-000.94,-000.32,17.6,24.5,,00.0,0661.5,30.9
2021-09-08T09:59:00Z,00000200,21000000,,,,,,,-000.22,-000.39,-000.51,17.6,24.6,,00.0,0661.5,30.9
